This is the latest recevied weather packets stored in our database for station/object M0TJX-1. If no packets are shown the sender has not sent any weather packets the latest 10 day(s).
| Time | Temp. | Humidity | Pressure | Rain* | Wind** | Luminosity | Snow |
|---|---|---|---|---|---|---|---|
| 1788135917 | 57° F | 90% | 753.7 mmHg | 0.01 in | - | - | - |
| 1788135017 | 58° F | 92% | 753.4 mmHg | 0 in | - | - | - |
| 1788134117 | 58° F | 92% | 752.9 mmHg | 0 in | - | - | - |
| 1788133217 | 59° F | 92% | 753 mmHg | 0 in | - | - | - |
| 1788132317 | 59° F | 92% | 753.1 mmHg | 0 in | - | - | - |
| 1788131417 | 59° F | 92% | 752.9 mmHg | 0.01 in | - | - | - |
| 1788130517 | 59° F | 92% | 752.8 mmHg | 0.01 in | - | - | - |
| 1788129617 | 60° F | 92% | 753 mmHg | 0.01 in | - | - | - |
| 1788128717 | 60° F | 92% | 753.1 mmHg | 0.02 in | - | - | - |
| 1788127817 | 60° F | 92% | 753.1 mmHg | 0.01 in | - | - | - |
| 1788126917 | 59° F | 93% | 753.2 mmHg | 0.01 in | - | - | - |
| 1788125117 | 59° F | 92% | 753.2 mmHg | 0.01 in | - | - | - |
| 1788124217 | 59° F | 92% | 753.4 mmHg | 0.03 in | - | - | - |
| 1788123317 | 59° F | 91% | 753.6 mmHg | 0.03 in | - | - | - |
| 1788122417 | 59° F | 89% | 753.7 mmHg | 0.03 in | - | - | - |
| 1788121517 | 60° F | 89% | 753.7 mmHg | 0.02 in | - | - | - |
| 1788120617 | 61° F | 89% | 754 mmHg | 0 in | - | - | - |
| 1788119718 | 61° F | 89% | 753.9 mmHg | 0 in | - | - | - |
| 1788118818 | 61° F | 89% | 753.9 mmHg | 0 in | - | - | - |
| 1788117918 | 61° F | 88% | 754 mmHg | 0.01 in | - | - | - |
| 1788117018 | 61° F | 89% | 753.7 mmHg | 0.02 in | - | - | - |
| 1788116118 | 62° F | 89% | 753.4 mmHg | 0.02 in | - | - | - |
| 1788115218 | 62° F | 90% | 753.4 mmHg | 0.02 in | - | - | - |
| 1788114318 | 63° F | 88% | 753.7 mmHg | 0.01 in | - | - | - |
| 1788113418 | 64° F | 86% | 753.9 mmHg | 0 in | - | - | - |
* Rain latest hour (hover to see other rain measurements)
** Current wind speed in m/s (hover to see current wind gust speed)